Wichita, KS

4:24 PM CDT on September 30, 2016 (GMT -0500)
Col Jabara

Weather History for KAAO - July, 2014

Change the Weather History Date:

Monday, July 28, 2014

  Actual Average (KICT) Record (KICT)
Temperature  
Mean Temperature 74 °F 81 °F  
Max Temperature 88 °F 93 °F 107 °F (2011)
Min Temperature 61 °F 70 °F 56 °F (2005)
Degree Days  
Heating Degree Days 0 0  
Month to date heating degree days 0  
Since 1 June heating degree days 6  
Since 1 July heating degree days 0  
Cooling Degree Days 10 16  
Month to date cooling degree days 443  
Year to date cooling degree days 908  
Since 1 June cooling degree days 772  
Growing Degree Days 24 (Base 50)    
Moisture  
Dew Point 58 °F    
Average Humidity 60    
Maximum Humidity 87    
Minimum Humidity 35    
Precipitation  
Precipitation 0.00 in 0.10 in 1.65 in (2013)
Month to date precipitation 3.03  
Year to date precipitation 20.09  
Snow  
Snow 0.00 in 0.00 in 0.00 in (2007)
Month to date snowfall 0.0  
Since 1 June snowfall 0.0  
Since 1 July snowfall 0.0  
Snow Depth -    
Sea Level Pressure  
Sea Level Pressure 30.17 in    
Wind  
Wind Speed 7 mph (NNE)    
Max Wind Speed 16 mph    
Max Gust Speed 20 mph    
Visibility 10 miles    
Events      
T = Trace of Precipitation, MM = Missing Value Source: NWS Daily Summary

Daily Weather History Graph

Daily Weather History Graph

Search for Another Location

Airport or City:

Trip Planner

Search our weather history database for the weather conditions in past years. The results will help you decide how hot, cold, wet, or windy it might be!

Date:

Astronomy

Jul. 28, 2014 Rise Set
Actual Time 6:29 AM CDT 8:41 PM CDT
Civil Twilight 5:59 AM CDT 9:10 PM CDT
Nautical Twilight 5:23 AM CDT 9:46 PM CDT
Astronomical Twilight 4:44 AM CDT 10:25 PM CDT
Moon 8:08 AM CDT (7/28) 9:26 PM CDT (7/28)
Length of Visible Light 15h 10m
Length of Day
14h 11m
Waxing Crescent, 3% of the Moon is Illuminated
Jul 28
Waxing Crescent
Aug 3
First Quarter
Aug 10
Full
Aug 17
Last Quarter
Aug 25
New

Hourly Weather History & Observations

Time (CDT) Temp. Heat Index Dew Point Humidity Pressure Visibility Wind Dir Wind Speed Gust Speed Precip Events Conditions
12:54 AM 66.9 °F - 55.9 °F 68% 30.14 in 10.0 mi NNE 6.9 mph - N/A   Clear
1:54 AM 66.9 °F - 57.0 °F 70% 30.14 in 10.0 mi NE 6.9 mph - N/A   Clear
3:54 AM 63.0 °F - 57.0 °F 81% 30.14 in 10.0 mi Calm Calm - N/A   Clear
4:54 AM 61.0 °F - 57.0 °F 87% 30.15 in 10.0 mi NNE 6.9 mph - N/A   Clear
5:54 AM 61.0 °F - 57.0 °F 87% 30.17 in 10.0 mi NNE 6.9 mph - N/A   Clear
6:54 AM 62.1 °F - 57.9 °F 86% 30.19 in 10.0 mi NNE 4.6 mph - N/A   Clear
7:54 AM 66.9 °F - 59.0 °F 76% 30.21 in 10.0 mi NNE 5.8 mph - N/A   Clear
8:54 AM 71.1 °F - 59.0 °F 66% 30.24 in 10.0 mi NE 8.1 mph - N/A   Clear
9:54 AM 73.9 °F - 59.0 °F 59% 30.27 in 10.0 mi NE 8.1 mph - N/A   Clear
10:54 AM 78.1 °F - 59.0 °F 52% 30.26 in 10.0 mi NNE 9.2 mph - N/A   Clear
11:54 AM 80.1 °F 80.9 °F 60.1 °F 50% 30.26 in 10.0 mi North 8.1 mph - N/A   Clear
12:54 PM 82.0 °F 82.1 °F 59.0 °F 45% 30.23 in 10.0 mi NNW 16.1 mph - N/A   Clear
3:54 PM 86.0 °F 85.0 °F 57.9 °F 38% 30.18 in 10.0 mi NW 11.5 mph - N/A   Clear
4:54 PM 88.0 °F 86.9 °F 57.9 °F 36% 30.16 in 10.0 mi North 12.7 mph 19.6 mph N/A   Clear
5:54 PM 88.0 °F 86.7 °F 57.0 °F 35% 30.13 in 10.0 mi NNE 9.2 mph - N/A   Clear
6:54 PM 86.0 °F 84.5 °F 55.0 °F 35% 30.12 in 10.0 mi North 8.1 mph - N/A   Clear
7:54 PM 81.0 °F 81.0 °F 57.0 °F 44% 30.11 in 10.0 mi NNE 4.6 mph - N/A   Clear
8:54 PM 75.9 °F - 57.9 °F 54% 30.12 in 10.0 mi NE 3.5 mph - N/A   Clear
9:54 PM 72.0 °F - 59.0 °F 64% 30.14 in 10.0 mi NE 4.6 mph - N/A   Clear
10:54 PM 71.1 °F - 57.9 °F 63% 30.14 in 10.0 mi ENE 6.9 mph - N/A   Clear
11:54 PM 68.0 °F - 57.0 °F 68% 30.15 in 10.0 mi ENE 4.6 mph - N/A   Clear